EW4194 Weather Reports


time (UTC)temp
F
wind
direction
speed
knots
gust
knots
rain 1hr
in
rain 24hr
in
rain mn
in
humidity
%
barometer
mb
20260507203022 81 79 4.3 7.8 0.00 0.00 0.00 17 1009.2
20260507201514 81 58 0.0 7.0 0.00 0.00 0.00 18 1009.5
20260507200010 80 124 1.7 11.3 0.00 0.00 0.00 20 1009.9
20260507194508 78 1 5.2 10.4 0.00 0.00 0.00 21 1010.1
20260507193005 77 110 0.9 13.0 0.00 0.00 0.00 22 1010.5
20260507191501 76 100 4.3 13.0 0.00 0.00 0.00 24 1010.8
20260507190059 76 58 6.1 13.9 0.00 0.00 0.00 23 1011.0
20260507184557 75 89 3.5 11.3 0.00 0.00 0.00 26 1011.3
20260507183053 75 49 2.6 12.2 0.00 0.00 0.00 25 1011.5
20260507181553 74 70 8.7 13.9 0.00 0.00 0.00 25 1011.8
20260507180057 72 346 7.0 14.8 0.00 0.00 0.00 28 1012.0
20260507174602 72 51 4.3 12.2 0.00 0.00 0.00 27 1012.3
20260507173048 71 77 12.2 17.4 0.00 0.00 0.00 28 1012.5
20260507171558 70 77 8.7 13.9 0.00 0.00 0.00 29 1012.7
20260507170039 69 70 9.6 15.6 0.00 0.00 0.00 31 1012.8
20260507164545 69 86 10.4 16.5 0.00 0.00 0.00 32 1013.0
20260507163043 67 71 8.7 14.8 0.00 0.00 0.00 34 1013.1
20260507161540 67 70 9.6 17.4 0.00 0.00 0.00 34 1013.3
20260507160043 66 66 7.8 15.6 0.00 0.00 0.00 35 1013.6
20260507154531 66 66 10.4 15.6 0.00 0.00 0.00 36 1013.7
20260507153031 65 67 8.7 13.0 0.00 0.00 0.00 37 1013.8
20260507151529 65 127 1.7 5.2 0.00 0.00 0.00 33 1013.7
20260507150029 66 145 0.0 3.5 0.00 0.00 0.00 31 1013.8
20260507144533 65 148 0.0 2.6 0.00 0.00 0.00 29 1013.9
20260507143023 64 168 0.0 2.6 0.00 0.00 0.00 31 1013.8
20260507141522 62 148 0.0 7.0 0.00 0.00 0.00 34 1013.9
20260507140016 60 56 4.3 10.4 0.00 0.00 0.00 41 1013.9
20260507134512 58 29 7.8 13.9 0.00 0.00 0.00 42 1013.7
20260507133012 58 28 8.7 14.8 0.00 0.00 0.00 42 1013.6
20260507131506 56 18 7.0 13.9 0.00 0.00 0.00 45 1013.7
20260507130011 55 358 2.6 6.1 0.00 0.00 0.00 47 1013.9
20260507124504 54 21 3.5 6.1 0.00 0.00 0.00 47 1013.6
20260507123002 53 58 0.9 3.5 0.00 0.00 0.00 48 1013.4
20260507121601 53 320 0.9 2.6 0.00 0.00 0.00 43 1013.5
20260507120058 55 27 3.5 12.2 0.00 0.00 0.00 41 1013.2
20260507114612 55 32 7.0 12.2 0.00 0.00 0.00 41 1013.0
20260507113057 53 49 2.6 7.8 0.00 0.00 0.00 39 1012.9
20260507111554 53 339 3.5 8.7 0.00 0.00 0.00 37 1012.6
20260507110054 50 350 3.5 6.1 0.00 0.00 0.00 43 1012.6
20260507104556 48 319 1.7 3.5 0.00 0.00 0.00 50 1012.8
20260507103050 47 316 4.3 7.0 0.00 0.00 0.00 50 1012.8
20260507101550 45 328 3.5 6.1 0.00 0.00 0.00 56 1012.7
20260507100046 46 103 0.0 1.7 0.00 0.00 0.00 54 1012.5
20260507094543 47 231 0.0 1.7 0.00 0.00 0.00 52 1012.2
20260507093043 47 231 0.0 0.0 0.00 0.00 0.00 52 1012.2
20260507091543 47 231 0.0 0.9 0.00 0.00 0.00 51 1012.1
20260507090037 48 231 0.0 0.0 0.00 0.00 0.00 50 1011.9
20260507084537 49 231 0.0 0.9 0.00 0.00 0.00 47 1012.0
20260507083035 49 231 0.9 2.6 0.00 0.00 0.00 45 1011.9
20260507081534 50 234 1.7 3.5 0.00 0.00 0.00 47 1012.0
20260507080032 48 86 1.7 3.5 0.00 0.00 0.00 54 1012.0
20260507074529 51 239 0.0 3.5 0.00 0.00 0.00 46 1011.9
20260507073028 52 239 0.0 1.7 0.00 0.00 0.00 38 1012.0
20260507071522 53 239 0.0 0.9 0.00 0.00 0.00 38 1011.9
20260507070022 53 239 0.0 3.5 0.00 0.00 0.00 38 1011.8
20260507064520 53 314 0.0 0.9 0.00 0.00 0.00 39 1011.8
20260507063029 54 314 0.0 0.0 0.00 0.00 0.00 39 1011.7
20260507061514 55 314 0.0 0.0 0.00 0.00 0.00 36 1011.6
20260507060022 56 63 0.0 2.6 0.00 0.00 0.00 36 1011.5
20260507054512 57 276 0.0 0.9 0.00 0.00 0.00 32 1011.2
20260507053010 58 34 0.0 5.2 0.00 0.00 0.00 31 1011.2
20260507051509 58 226 0.0 0.9 0.00 0.00 0.00 32 1011.2
20260507050008 57 226 0.9 2.6 0.00 0.00 0.00 36 1011.2
20260507044507 57 227 0.0 0.9 0.00 0.00 0.00 38 1010.9
20260507043006 57 227 0.0 1.7 0.00 0.00 0.00 38 1010.7
20260507041505 58 227 0.0 0.9 0.00 0.00 0.00 39 1010.6
20260507040004 60 227 0.0 0.9 0.00 0.00 0.00 35 1010.4
20260507034510 63 108 0.0 0.9 0.00 0.00 0.00 28 1010.3
20260507033003 63 112 0.0 0.9 0.00 0.00 0.00 27 1010.1
20260507031503 65 112 0.0 0.9 0.00 0.00 0.00 25 1009.9
20260507030005 66 333 0.0 3.5 0.00 0.00 0.00 23 1009.7
20260507024503 67 319 0.0 0.9 0.00 0.00 0.00 22 1009.4
20260507023001 68 319 0.0 0.9 0.00 0.00 0.00 21 1009.1
20260507021501 70 319 0.0 4.3 0.00 0.00 0.00 19 1008.9
20260507020101 72 317 1.7 5.2 0.00 0.00 0.00 18 1008.7
20260507014603 73 316 2.6 8.7 0.00 0.00 0.00 17 1008.5
20260507013117 74 311 6.1 10.4 0.00 0.00 0.00 16 1008.5
20260507011604 75 320 4.3 8.7 0.00 0.00 0.00 16 1008.2
20260507010104 76 301 4.3 12.2 0.00 0.00 0.00 17 1008.0
20260507004554 76 274 4.3 10.4 0.00 0.00 0.00 16 1007.9
20260507003053 77 295 5.2 11.3 0.00 0.00 0.00 17 1007.8
20260507001555 76 304 5.2 13.9 0.00 0.00 0.00 17 1007.8
20260507000052 77 296 4.3 13.0 0.00 0.00 0.00 17 1007.8
20260506234551 77 278 7.8 16.5 0.00 0.00 0.00 16 1007.7
20260506233103 78 243 6.1 12.2 0.00 0.00 0.00 16 1007.7
20260506231549 77 283 6.1 14.8 0.00 0.00 0.00 16 1007.7
20260506230049 77 332 4.3 13.0 0.00 0.00 0.00 17 1007.6
20260506224546 77 297 9.6 15.6 0.00 0.00 0.00 17 1007.8
20260506223047 77 324 7.8 19.1 0.00 0.00 0.00 16 1007.8
20260506221553 76 332 6.1 14.8 0.00 0.00 0.00 18 1007.9
20260506220043 76 231 8.7 15.6 0.00 0.00 0.00 17 1007.9
20260506214541 76 251 8.7 22.6 0.00 0.00 0.00 17 1008.2
20260506213040 76 328 7.0 14.8 0.00 0.00 0.00 18 1008.3
20260506211540 76 303 4.3 14.8 0.00 0.00 0.00 17 1008.4
20260506210038 76 260 7.0 15.6 0.00 0.00 0.00 17 1008.6
20260506204538 75 292 10.4 15.6 0.00 0.00 0.00 17 1008.9